KC5KKT-1 Weather Reports


time (UTC)temp
F
wind
direction
speed
knots
gust
knots
rain 1hr
in
rain 24hr
in
rain mn
in
humidity
%
barometer
mb
20220524022504 70 231 3.5 7.8 0.00 0.00 0.00 83 1013.2
20220524022004 70 235 2.6 7.0 0.00 0.00 0.00 84 1013.4
20220524021504 70 232 2.6 4.3 0.00 0.00 0.00 84 1013.6
20220524021004 70 229 1.7 4.3 0.00 0.00 0.00 84 1013.6
20220524020503 70 216 0.9 3.5 0.00 0.00 0.00 84 1013.5
20220524020004 70 213 0.9 3.5 0.00 0.00 0.00 84 1013.5
20220524015504 70 211 0.9 3.5 0.00 0.00 0.00 84 1013.5
20220524015003 70 212 0.9 4.3 0.00 0.00 0.00 84 1013.3
20220524014504 70 212 0.9 4.3 0.00 0.00 0.00 83 1013.1
20220524014004 70 212 0.9 4.3 0.00 0.00 0.00 83 1013.1
20220524013503 70 213 0.9 4.3 0.00 0.00 0.00 83 1013.0
20220524013004 70 209 0.9 6.1 0.00 0.00 0.00 83 1013.0
20220524012504 70 210 0.9 6.1 0.00 0.00 0.00 82 1013.0
20220524012003 70 210 0.9 5.2 0.00 0.00 0.00 82 1012.9
20220524011504 70 207 0.9 6.1 0.00 0.00 0.00 82 1013.0
20220524011004 70 210 0.9 6.1 0.00 0.00 0.00 82 1012.9
20220524010503 70 209 0.9 3.5 0.00 0.00 0.00 81 1012.9
20220524010004 70 212 1.7 4.3 0.00 0.00 0.00 81 1013.1
20220524005504 70 214 1.7 4.3 0.00 0.00 0.00 81 1013.1
20220524005003 71 214 1.7 5.2 0.00 0.00 0.00 81 1013.2
20220524004504 71 215 1.7 5.2 0.00 0.00 0.00 81 1013.3
20220524004004 71 213 0.9 5.2 0.00 0.00 0.00 80 1013.5
20220524003503 71 211 0.9 4.3 0.00 0.00 0.00 80 1013.5
20220524003004 71 212 1.7 5.2 0.00 0.00 0.00 80 1013.3
20220524002503 71 210 1.7 5.2 0.00 0.00 0.00 80 1013.3
20220524002004 71 213 1.7 4.3 0.00 0.00 0.00 80 1013.3
20220524001504 71 215 1.7 4.3 0.00 0.00 0.00 80 1013.3
20220524001004 71 212 0.9 4.3 0.00 0.00 0.00 80 1013.4
20220524000503 71 199 0.9 3.5 0.00 0.00 0.00 81 1013.5
20220524000007 70 192 0.0 3.5 0.00 0.00 0.00 82 1013.7
20220523235504 70 116 0.0 1.7 0.00 0.00 0.00 83 1013.6
20220523235003 70 105 0.0 1.7 0.00 0.00 0.00 83 1013.7
20220523234504 70 102 0.9 3.5 0.00 0.00 0.00 83 1013.9
20220523234004 70 105 0.9 3.5 0.00 0.00 0.00 83 1013.9
20220523233503 70 105 0.0 2.6 0.00 0.00 0.00 83 1014.1
20220523233004 70 98 0.0 1.7 0.00 0.00 0.00 83 1014.2
20220523232504 70 97 0.0 1.7 0.00 0.00 0.00 83 1014.4
20220523232003 70 93 0.0 2.6 0.00 0.00 0.00 82 1014.4
20220523231504 70 88 0.9 2.6 0.00 0.00 0.00 82 1014.4
20220523231004 70 84 1.7 3.5 0.00 0.00 0.00 81 1014.4
20220523230503 71 81 0.9 3.5 0.00 0.00 0.00 80 1014.3
20220523230004 72 81 0.0 3.5 0.00 0.00 0.00 79 1014.5
20220523225504 72 0 0.0 0.0 0.00 0.00 0.00 78 1014.4
20220523225003 72 0 0.0 0.0 0.00 0.00 0.00 78 1014.5
20220523224504 72 114 0.0 1.7 0.00 0.00 0.00 78 1014.6
20220523224004 73 132 0.0 1.7 0.00 0.00 0.00 77 1014.7
20220523223503 73 222 0.0 2.6 0.00 0.00 0.00 76 1014.7
20220523223004 73 221 0.0 2.6 0.00 0.00 0.00 76 1014.9
20220523222504 73 213 0.0 2.6 0.00 0.00 0.00 75 1014.8
20220523222003 73 210 0.0 1.7 0.00 0.00 0.00 75 1014.7
20220523221504 73 232 0.9 5.2 0.00 0.00 0.00 76 1014.7
20220523221004 73 232 0.9 6.1 0.00 0.00 0.00 75 1014.7
20220523220503 74 218 0.9 6.1 0.00 0.00 0.00 76 1014.7
20220523220004 73 223 2.6 6.1 0.00 0.00 0.00 76 1014.6
20220523215504 73 220 2.6 7.0 0.00 0.00 0.00 75 1014.4
20220523215003 73 210 1.7 7.0 0.00 0.00 0.00 75 1014.4
20220523214504 73 219 1.7 5.2 0.00 0.00 0.00 74 1014.5
20220523214004 73 228 1.7 4.3 0.00 0.00 0.00 76 1014.6
20220523213503 73 215 1.7 7.8 0.00 0.00 0.00 77 1014.6
20220523213004 73 205 1.7 7.8 0.00 0.00 0.00 75 1014.4
20220523212504 73 216 1.7 5.2 0.00 0.00 0.00 76 1014.6
20220523212003 72 226 1.7 5.2 0.00 0.00 0.00 77 1014.7
20220523211504 72 217 0.9 5.2 0.00 0.00 0.00 76 1014.7
20220523211004 72 202 0.9 3.5 0.00 0.00 0.00 76 1014.9
20220523210503 72 205 1.7 4.3 0.00 0.00 0.00 77 1015.0
20220523210004 72 211 1.7 5.2 0.00 0.00 0.00 77 1014.9
20220523205504 72 207 1.7 6.1 0.00 0.00 0.00 76 1015.0
20220523205003 72 204 0.9 6.1 0.00 0.00 0.00 76 1015.2
20220523204504 72 225 0.9 2.6 0.00 0.00 0.00 76 1015.4
20220523204003 72 242 0.9 5.2 0.00 0.00 0.00 77 1015.5
20220523203503 72 232 1.7 7.0 0.00 0.00 0.00 77 1015.5
20220523203004 72 228 2.6 7.0 0.00 0.00 0.00 76 1015.5
20220523202503 72 229 3.5 7.0 0.00 0.00 0.00 77 1015.6
20220523202003 72 227 4.3 9.6 0.00 0.00 0.00 76 1015.6
20220523201504 72 226 4.3 10.4 0.00 0.00 0.00 78 1015.6
20220523201003 72 221 3.5 10.4 0.00 0.00 0.00 77 1015.6
20220523200503 72 220 3.5 12.2 0.00 0.00 0.00 76 1015.7
20220523200004 71 222 4.3 12.2 0.00 0.00 0.00 78 1015.7
20220523195503 72 221 3.5 7.8 0.00 0.00 0.00 78 1016.0
20220523195003 72 220 4.3 9.6 0.00 0.00 0.00 78 1015.9
20220523194504 71 222 6.1 11.3 0.00 0.00 0.00 80 1015.9
20220523194003 71 225 7.0 12.2 0.00 0.00 0.00 80 1015.9
20220523193503 71 226 7.8 12.2 0.00 0.00 0.00 80 1016.0
20220523193004 70 225 7.8 15.6 0.00 0.00 0.00 80 1016.2
20220523192504 70 227 7.8 15.6 0.00 0.00 0.00 81 1016.2
20220523192003 69 227 7.8 11.3 0.00 0.00 0.00 82 1016.3
20220523191504 68 228 7.8 11.3 0.00 0.00 0.00 85 1016.6
20220523191003 68 225 7.0 11.3 0.00 0.00 0.00 85 1016.7
20220523190503 67 222 7.0 11.3 0.00 0.00 0.00 85 1016.9
20220523190004 67 224 6.1 10.4 0.00 0.00 0.00 86 1017.0
20220523185503 67 219 6.1 10.4 0.00 0.00 0.00 85 1017.1
20220523185003 66 223 6.1 10.4 0.00 0.00 0.00 86 1017.1
20220523184504 66 226 7.0 11.3 0.00 0.00 0.00 87 1017.2
20220523184003 66 229 7.0 11.3 0.00 0.00 0.00 87 1017.4
20220523183503 65 228 6.1 10.4 0.00 0.00 0.00 89 1017.4
20220523183004 65 220 5.2 9.6 0.00 0.00 0.00 88 1017.6
20220523182503 64 224 6.1 9.6 0.00 0.00 0.00 89 1017.8
20220523182003 64 228 5.2 9.6 0.00 0.00 0.00 89 1017.9
20220523181504 64 229 5.2 8.7 0.00 0.00 0.00 90 1017.8
20220523181003 64 228 5.2 8.7 0.00 0.00 0.00 91 1017.9
20220523180503 64 225 5.2 8.7 0.00 0.00 0.00 91 1018.0
20220523180004 63 219 4.3 8.7 0.00 0.00 0.00 91 1017.8
20220523175503 63 218 4.3 9.6 0.00 0.00 0.00 91 1018.0
20220523175003 63 221 4.3 9.6 0.00 0.00 0.00 92 1018.0
20220523174504 63 219 4.3 9.6 0.00 0.00 0.00 92 1018.1
20220523174003 62 215 4.3 9.6 0.00 0.00 0.00 92 1018.1
20220523173503 62 215 2.6 7.8 0.00 0.00 0.00 92 1018.2
20220523173004 63 221 3.5 8.7 0.00 0.00 0.00 93 1018.1
20220523172503 62 221 3.5 8.7 0.00 0.00 0.00 93 1018.1
20220523172003 62 213 3.5 7.0 0.00 0.00 0.00 94 1018.2
20220523171504 62 209 3.5 7.0 0.00 0.00 0.00 94 1018.2
20220523171003 62 215 3.5 7.0 0.00 0.00 0.00 94 1018.2
20220523170503 61 215 3.5 7.0 0.00 0.00 0.00 94 1018.5
20220523170004 61 209 2.6 7.0 0.00 0.00 0.00 94 1018.7
20220523165503 61 206 1.7 5.2 0.00 0.00 0.00 94 1018.8
20220523165003 61 201 0.9 5.2 0.00 0.00 0.00 95 1018.8
20220523164504 61 210 1.7 6.1 0.00 0.00 0.00 95 1018.9
20220523164003 61 210 1.7 6.1 0.00 0.00 0.00 95 1018.9
20220523163503 61 208 0.9 5.2 0.00 0.00 0.00 96 1019.1
20220523163004 61 196 0.9 4.3 0.00 0.00 0.00 96 1019.2
20220523162503 61 198 0.9 4.3 0.00 0.00 0.00 96 1019.3
20220523162004 61 209 1.7 5.2 0.00 0.00 0.00 96 1019.5
20220523161505 61 202 0.9 5.2 0.00 0.00 0.00 95 1019.8
20220523161004 61 163 0.9 3.5 0.00 0.00 0.00 96 1019.9
20220523160504 61 182 0.0 2.6 0.00 0.00 0.00 96 1019.8
20220523160005 61 167 0.0 2.6 0.00 0.00 0.00 96 1019.8
20220523155504 60 197 0.9 3.5 0.00 0.00 0.00 96 1019.9
20220523155004 60 208 0.9 5.2 0.00 0.00 0.00 96 1019.7
20220523154505 60 215 0.9 5.2 0.00 0.00 0.00 96 1019.9
20220523154004 60 215 1.7 4.3 0.00 0.00 0.00 96 1019.8
20220523153504 60 212 1.7 4.3 0.00 0.00 0.00 96 1019.7
20220523153005 60 215 1.7 6.1 0.00 0.00 0.00 96 1019.9
20220523152504 60 220 1.7 6.1 0.00 0.00 0.00 96 1019.7
20220523152004 60 222 0.9 3.5 0.00 0.00 0.00 96 1019.7
20220523151505 60 218 0.9 2.6 0.00 0.00 0.00 97 1019.8
20220523151004 60 218 0.9 3.5 0.00 0.00 0.00 97 1019.9
20220523150504 60 219 0.9 3.5 0.00 0.00 0.00 96 1019.8
20220523150005 60 225 1.7 5.2 0.00 0.00 0.00 97 1019.9
20220523145504 60 226 1.7 5.2 0.00 0.00 0.00 97 1019.8
20220523145004 60 218 0.0 1.7 0.00 0.00 0.00 97 1020.1
20220523144506 60 219 0.0 1.7 0.00 0.00 0.00 97 1020.1
20220523144004 60 225 0.0 1.7 0.00 0.00 0.00 97 1020.1
20220523143504 60 213 0.9 2.6 0.00 0.00 0.00 97 1019.9
20220523143005 59 211 1.7 4.3 0.00 0.00 0.00 97 1020.0
20220523142504 59 214 1.7 4.3 0.00 0.00 0.00 96 1019.9
20220523142004 60 211 0.9 2.6 0.00 0.00 0.00 96 1020.0
20220523141505 60 205 0.9 2.6 0.00 0.00 0.00 97 1019.9
20220523141004 60 208 0.9 2.6 0.00 0.00 0.00 96 1019.9
20220523140504 60 210 0.9 3.5 0.00 0.00 0.00 97 1019.9
20220523140005 59 216 1.7 4.3 0.00 0.00 0.00 97 1019.8
20220523135504 59 218 1.7 4.3 0.00 0.00 0.00 97 1019.9
20220523135004 59 216 0.9 3.5 0.00 0.00 0.00 97 1020.0
20220523134505 59 214 0.9 2.6 0.00 0.00 0.00 97 1020.3
20220523134004 59 212 0.9 3.5 0.00 0.00 0.00 97 1020.3
20220523133504 59 212 0.9 3.5 0.00 0.00 0.00 97 1020.3
20220523133005 59 213 0.9 3.5 0.00 0.00 0.00 97 1020.2
20220523132504 59 218 0.9 2.6 0.00 0.00 0.00 97 1020.2
20220523132004 59 202 0.0 2.6 0.00 0.00 0.00 97 1020.1
20220523131505 59 210 0.9 2.6 0.00 0.00 0.00 97 1020.0
20220523131004 59 213 0.9 4.3 0.00 0.00 0.00 97 1020.0
20220523130504 59 208 0.9 4.3 0.00 0.00 0.00 97 1019.8
20220523130005 59 211 1.7 4.3 0.00 0.00 0.00 97 1019.6
20220523125504 59 220 0.9 3.5 0.00 0.00 0.00 97 1019.6
20220523125004 59 214 0.9 4.3 0.00 0.00 0.00 97 1019.6
20220523124505 59 210 0.9 4.3 0.00 0.00 0.00 97 1019.7
20220523124004 59 218 0.9 3.5 0.00 0.00 0.00 97 1019.8
20220523123504 59 213 0.9 3.5 0.00 0.00 0.00 97 1019.9
20220523123005 59 213 0.9 4.3 0.00 0.00 0.00 97 1019.9
20220523122504 59 218 0.9 4.3 0.00 0.00 0.00 97 1020.0
20220523122004 59 213 0.9 3.5 0.00 0.00 0.00 97 1019.9
20220523121505 59 214 0.9 3.5 0.00 0.00 0.00 97 1019.8
20220523121004 59 216 0.9 3.5 0.00 0.00 0.00 97 1019.7
20220523120504 59 213 0.9 3.5 0.00 0.00 0.00 97 1019.6
20220523120005 59 213 1.7 3.5 0.00 0.00 0.00 97 1019.5
20220523115504 59 216 0.9 3.5 0.00 0.00 0.00 97 1019.5
20220523115004 59 210 0.9 3.5 0.00 0.00 0.00 97 1019.6
20220523114504 59 210 0.9 3.5 0.00 0.00 0.00 97 1019.6
20220523114004 59 220 0.9 3.5 0.00 0.00 0.00 97 1019.6
20220523113504 59 221 0.9 2.6 0.00 0.00 0.00 97 1019.6
20220523113005 59 215 0.0 2.6 0.00 0.00 0.00 97 1019.5
20220523112504 59 214 0.9 3.5 0.00 0.00 0.00 97 1019.5
20220523112004 59 216 0.9 3.5 0.00 0.00 0.00 97 1019.5
20220523111505 59 216 0.9 2.6 0.00 0.00 0.00 97 1019.7
20220523111004 59 215 0.9 2.6 0.00 0.00 0.00 97 1019.6
20220523110505 58 213 0.9 3.5 0.00 0.00 0.00 97 1019.4
20220523110005 58 214 1.7 5.2 0.00 0.00 0.00 97 1019.4
20220523105504 58 215 1.7 5.2 0.00 0.00 0.00 97 1019.2
20220523105004 58 215 0.9 3.5 0.00 0.00 0.00 97 1019.2
20220523104505 58 215 0.0 1.7 0.00 0.00 0.00 97 1019.4
20220523104004 58 221 0.9 3.5 0.00 0.00 0.00 97 1019.3
20220523103504 58 220 0.9 3.5 0.00 0.00 0.00 97 1019.2
20220523103005 58 212 1.7 4.3 0.00 0.00 0.00 97 1019.1
20220523102504 58 211 1.7 5.2 0.00 0.00 0.00 97 1019.0
20220523102004 58 214 1.7 5.2 0.00 0.00 0.00 97 1019.0
20220523101505 58 208 0.9 3.5 0.00 0.00 0.00 97 1019.2
20220523101004 58 215 0.9 3.5 0.00 0.00 0.00 97 1019.1
20220523100504 58 215 1.7 5.2 0.00 0.00 0.00 97 1019.1
20220523100006 58 213 2.6 7.0 0.00 0.00 0.00 96 1019.0
20220523095504 58 213 2.6 7.0 0.00 0.00 0.00 96 1019.0
20220523095004 58 209 1.7 6.1 0.00 0.00 0.00 96 1019.2
20220523094505 58 209 2.6 6.1 0.00 0.00 0.00 97 1019.3
20220523094004 58 214 1.7 4.3 0.00 0.00 0.00 97 1019.2
20220523093504 58 220 0.9 4.3 0.00 0.00 0.00 97 1019.5
20220523093005 58 119 0.0 1.7 0.00 0.00 0.00 97 1019.7
20220523092504 58 110 0.0 2.6 0.00 0.00 0.00 96 1019.7
20220523092004 58 116 0.0 2.6 0.00 0.00 0.00 96 1019.7
20220523091504 58 112 0.0 1.7 0.00 0.00 0.00 96 1019.7
20220523091004 58 105 0.0 1.7 0.00 0.00 0.00 96 1019.7
20220523090504 58 111 0.0 1.7 0.00 0.00 0.00 96 1019.8
20220523090005 58 123 0.0 1.7 0.00 0.00 0.00 96 1019.9
20220523085504 58 50 0.0 0.9 0.00 0.00 0.00 96 1019.8
20220523085004 58 78 0.0 0.9 0.00 0.00 0.00 96 1019.9
20220523084505 58 91 0.0 0.9 0.00 0.00 0.00 96 1020.1
20220523084004 58 110 0.0 1.7 0.00 0.00 0.00 96 1020.2
20220523083505 58 116 0.0 1.7 0.00 0.00 0.00 96 1020.4
20220523083005 58 104 0.0 1.7 0.00 0.00 0.00 96 1020.3
20220523082504 58 95 0.0 0.9 0.00 0.00 0.00 96 1020.2
20220523082004 58 107 0.0 0.9 0.00 0.00 0.00 96 1020.3
20220523081505 58 137 0.0 2.6 0.00 0.00 0.00 96 1020.3
20220523081004 58 152 0.0 2.6 0.00 0.00 0.00 96 1020.2
20220523080505 58 193 0.0 1.7 0.00 0.00 0.00 96 1020.3
20220523080005 58 197 0.0 1.7 0.00 0.00 0.00 96 1020.4
20220523075504 58 146 0.0 1.7 0.00 0.00 0.00 96 1020.4
20220523075004 58 104 0.0 1.7 0.00 0.00 0.00 96 1020.6
20220523074504 58 104 0.0 1.7 0.00 0.00 0.00 96 1020.8
20220523074005 58 97 0.0 0.9 0.00 0.00 0.00 96 1020.8
20220523073504 58 109 0.0 1.7 0.00 0.00 0.00 96 1020.8
20220523073005 58 115 0.0 1.7 0.00 0.00 0.00 96 1020.9
20220523072504 58 125 0.0 1.7 0.00 0.00 0.00 96 1020.9
20220523072004 58 115 0.0 1.7 0.00 0.00 0.00 96 1020.9
20220523071504 58 99 0.0 2.6 0.00 0.00 0.00 96 1021.0
20220523071004 57 104 0.0 2.6 0.00 0.00 0.00 96 1021.0
20220523070504 57 113 0.0 1.7 0.00 0.00 0.00 96 1021.0
20220523070005 57 108 0.0 3.5 0.00 0.00 0.00 96 1021.1
20220523065504 57 103 0.9 3.5 0.00 0.00 0.00 95 1021.1
20220523065004 57 99 0.0 2.6 0.00 0.00 0.00 95 1021.0
20220523064505 57 108 0.0 1.7 0.00 0.00 0.00 95 1021.1
20220523064004 57 107 0.0 1.7 0.00 0.00 0.00 95 1021.1
20220523063505 57 107 0.0 1.7 0.00 0.00 0.00 95 1021.2
20220523063005 57 125 0.0 0.9 0.00 0.00 0.00 95 1021.0
20220523062505 57 152 0.0 1.7 0.00 0.00 0.00 95 1021.2
20220523062004 57 182 0.0 2.6 0.00 0.00 0.00 95 1021.1
20220523061505 57 193 0.0 2.6 0.00 0.00 0.00 95 1020.8
20220523061004 57 164 0.0 2.6 0.00 0.00 0.00 95 1020.9
20220523060504 57 165 0.0 1.7 0.00 0.00 0.00 95 1020.8
20220523060005 57 119 0.0 2.6 0.00 0.00 0.00 95 1020.9
20220523055504 57 199 0.9 2.6 0.00 0.00 0.00 95 1020.9
20220523055004 57 212 0.9 2.6 0.00 0.00 0.00 95 1021.0
20220523054504 57 92 0.0 3.5 0.00 0.00 0.00 95 1021.2
20220523054004 57 104 0.0 3.5 0.00 0.00 0.00 94 1021.2
20220523053504 57 181 0.0 3.5 0.00 0.00 0.00 94 1021.0
20220523053005 57 211 0.9 2.6 0.00 0.00 0.00 94 1020.9
20220523052504 57 205 0.0 1.7 0.00 0.00 0.00 94 1020.8
20220523052004 57 182 0.0 1.7 0.00 0.00 0.00 94 1021.0
20220523051505 57 186 0.0 1.7 0.00 0.00 0.00 94 1021.1
20220523051005 57 226 0.0 1.7 0.00 0.00 0.00 94 1021.1
20220523050504 57 220 0.0 1.7 0.00 0.00 0.00 94 1021.2
20220523050007 57 216 0.9 3.5 0.00 0.00 0.00 94 1021.2
20220523045505 57 215 0.0 3.5 0.00 0.00 0.00 93 1021.3
20220523045004 57 200 0.0 3.5 0.00 0.00 0.00 93 1021.3
20220523044504 57 198 0.9 3.5 0.00 0.00 0.00 93 1021.3
20220523044004 57 208 0.9 2.6 0.00 0.00 0.00 93 1021.3
20220523043505 58 216 0.0 1.7 0.00 0.00 0.00 93 1021.4
20220523043005 58 213 0.0 1.7 0.00 0.00 0.00 93 1021.5
20220523042505 58 197 0.0 1.7 0.00 0.00 0.00 92 1021.5
20220523042005 58 209 0.0 1.7 0.00 0.00 0.00 92 1021.5
20220523041504 58 211 0.0 1.7 0.00 0.00 0.00 92 1021.5
20220523041004 58 219 0.9 4.3 0.00 0.00 0.00 91 1021.5
20220523040504 58 211 0.9 4.3 0.00 0.00 0.00 91 1021.5
20220523040005 58 205 0.9 5.2 0.00 0.00 0.00 91 1021.6
20220523035505 58 207 1.7 5.2 0.00 0.00 0.00 90 1021.7
20220523035005 58 207 1.7 5.2 0.00 0.00 0.00 90 1021.8
20220523034504 58 208 1.7 7.8 0.00 0.00 0.00 89 1021.8
20220523034004 58 214 2.6 7.8 0.00 0.00 0.00 89 1021.7
20220523033504 59 214 2.6 7.8 0.00 0.00 0.00 88 1021.6
20220523033005 59 214 2.6 7.8 0.00 0.00 0.00 87 1021.6
20220523032505 59 212 2.6 7.0 0.00 0.00 0.00 87 1021.6
20220523032005 59 210 3.5 8.7 0.00 0.00 0.00 86 1021.6
20220523031505 59 213 2.6 8.7 0.00 0.00 0.00 86 1021.5
20220523031005 59 221 1.7 7.0 0.00 0.00 0.00 85 1021.4
20220523030504 60 214 0.9 7.0 0.00 0.00 0.00 85 1021.4
20220523030005 60 211 0.9 3.5 0.00 0.00 0.00 84 1021.3
20220523025505 60 214 1.7 5.2 0.00 0.00 0.00 84 1021.3
20220523025005 60 203 0.9 5.2 0.00 0.00 0.00 83 1021.3
20220523024504 60 201 0.9 4.3 0.00 0.00 0.00 83 1021.3
20220523024004 60 219 0.9 4.3 0.00 0.00 0.00 83 1021.3
20220523023504 60 216 0.9 5.2 0.00 0.00 0.00 82 1021.4
20220523023005 60 206 1.7 6.1 0.00 0.00 0.00 82 1021.5